Weather History for Hallock, MN

Change the Weather History Date:

Tuesday, February 26, 2013

  Actual Average Record
Temperature  
Mean Temperature 16 °F -  
Max Temperature 21 °F 25 °F 61 °F (1958)
Min Temperature 10 °F 3 °F -25 °F (1934)
Degree Days  
Heating Degree Days 50    
Moisture  
Dew Point 14 °F    
Average Humidity 95    
Maximum Humidity 100    
Minimum Humidity 92    
Precipitation  
Precipitation 0.00 in - - ()
Sea Level Pressure  
Sea Level Pressure 30.02 in    
Wind  
Wind Speed 11 mph (SSE)    
Max Wind Speed 16 mph    
Max Gust Speed -    
Visibility 4 miles    
Events Fog , Snow    
Averages and records for this station are not official NWS values.
T = Trace of Precipitation, MM = Missing Value Source: NWS Daily Summary

Daily Weather History Graph

Daily Weather History Graph

Search for Another Location

Airport:

Trip Planner

Search our weather history database for the weather conditions in past years. The results will help you decide how hot, cold, wet, or windy it might be!

Date:

Astronomy

Feb. 26, 2013 Rise Set
Actual Time 7:14 AM CST 6:07 PM CST
Civil Twilight 6:43 AM CST 6:38 PM CST
Nautical Twilight 6:06 AM CST 7:15 PM CST
Astronomical Twilight 5:30 AM CST 7:51 PM CST
Moon 7:36 PM CST (2/26) 7:09 AM CST (2/26)
Length of Visible Light 11h 55m
Length of Day
10h 52m
Full, 99% of the Moon is Illuminated
Feb 26
Full
Mar 4
Last Quarter
Mar 11
New
Mar 19
First Quarter
Mar 27
Full

Hourly Weather History & Observations

Time (CST) Temp. Windchill Dew Point Humidity Pressure Visibility Wind Dir Wind Speed Gust Speed Precip Events Conditions
12:14 AM 14.0 °F -1.4 °F 12.2 °F 93% 29.95 in 7.0 mi SSE 15.0 mph - N/A   Clear
12:34 AM 14.0 °F -2.0 °F 12.2 °F 93% 29.94 in 7.0 mi SSE 16.1 mph - N/A   Clear
12:54 AM 12.2 °F -3.1 °F 10.4 °F 92% 29.94 in 3.0 mi SSE 13.8 mph - N/A   Clear
1:13 AM 12.2 °F -3.7 °F 10.4 °F 92% 29.94 in 5.0 mi SSE 15.0 mph - N/A   Clear
1:34 AM 12.2 °F -3.7 °F 10.4 °F 92% 29.94 in 4.0 mi SSE 15.0 mph - N/A   Clear
1:54 AM 12.2 °F -3.1 °F 10.4 °F 92% 29.94 in 3.0 mi SSE 13.8 mph - N/A Snow Light Snow
2:13 AM 12.2 °F -2.5 °F 10.4 °F 92% 29.95 in 3.0 mi SSE 12.7 mph - N/A   Clear
2:34 AM 12.2 °F -3.1 °F 10.4 °F 92% 29.95 in 3.0 mi SSE 13.8 mph - N/A Snow Light Snow
2:54 AM 12.2 °F -3.1 °F 10.4 °F 92% 29.95 in 3.0 mi SSE 13.8 mph - N/A   Mostly Cloudy
3:13 AM 12.2 °F -3.7 °F 10.4 °F 92% 29.95 in 4.0 mi SSE 15.0 mph - N/A   Scattered Clouds
3:34 AM 12.2 °F -1.8 °F 10.4 °F 92% 29.96 in 1.8 mi SSE 11.5 mph - N/A Snow Light Snow
3:54 AM 12.2 °F -3.1 °F 12.2 °F 100% 29.96 in 2.0 mi South 13.8 mph - N/A Snow Light Snow
4:14 AM 12.2 °F -1.8 °F 10.4 °F 92% 29.96 in 5.0 mi SSE 11.5 mph - N/A   Scattered Clouds
4:34 AM 10.4 °F -4.1 °F 10.4 °F 100% 29.97 in 5.0 mi SSE 11.5 mph - N/A   Clear
4:54 AM 10.4 °F -4.1 °F 8.6 °F 92% 29.97 in 7.0 mi SSE 11.5 mph - N/A   Clear
5:14 AM 10.4 °F -3.3 °F 8.6 °F 92% 29.97 in 7.0 mi SSE 10.4 mph - N/A   Clear
5:34 AM 10.4 °F -4.1 °F 8.6 °F 92% 29.98 in 5.0 mi SSE 11.5 mph - N/A   Scattered Clouds
5:54 AM 10.4 °F -4.8 °F 8.6 °F 92% 29.98 in 5.0 mi SSE 12.7 mph - N/A   Mostly Cloudy
6:14 AM 10.4 °F -4.1 °F 8.6 °F 92% 29.99 in 1.2 mi SSE 11.5 mph - N/A Snow Light Snow
6:34 AM 14.0 °F -0.8 °F 12.2 °F 93% 29.99 in 1.2 mi SSE 13.8 mph - N/A   Overcast
6:54 AM 12.2 °F -2.5 °F 12.2 °F 100% 30.00 in 1.2 mi SSE 12.7 mph - N/A Snow Light Snow
7:01 AM 12.2 °F -1.8 °F 12.2 °F 100% 30.00 in 1.5 mi SSE 11.5 mph - N/A Snow Light Snow
9:01 AM 15.8 °F 4.2 °F 14.0 °F 93% 29.99 in 0.2 mi SSE 9.2 mph - N/A   Overcast
9:28 AM 15.8 °F 2.1 °F 14.0 °F 93% 30.01 in 0.2 mi South 12.7 mph - N/A Fog Light Freezing Fog
9:33 AM 15.8 °F 3.4 °F 15.8 °F 100% 30.01 in 0.2 mi South 10.4 mph - N/A Fog Light Freezing Fog
9:54 AM 15.8 °F 2.7 °F 15.8 °F 100% 30.01 in 0.8 mi South 11.5 mph - N/A   Overcast
10:13 AM 17.6 °F 5.0 °F 15.8 °F 93% 30.00 in 1.5 mi South 11.5 mph - N/A   Overcast
10:34 AM 17.6 °F 3.2 °F 15.8 °F 93% 30.01 in 1.2 mi South 15.0 mph - N/A   Overcast
10:54 AM 17.6 °F 5.7 °F 15.8 °F 93% 30.01 in 2.5 mi South 10.4 mph - N/A   Mostly Cloudy
11:13 AM 17.6 °F 5.7 °F 15.8 °F 93% 30.00 in 3.0 mi SSE 10.4 mph - N/A   Mostly Cloudy
11:34 AM 17.6 °F 3.7 °F 17.6 °F 100% 30.01 in 4.0 mi SSE 13.8 mph - N/A   Scattered Clouds
11:54 AM 19.4 °F 5.5 °F 17.6 °F 93% 30.02 in 2.5 mi South 15.0 mph - N/A   Mostly Cloudy
12:14 PM 19.4 °F 5.5 °F 17.6 °F 93% 30.02 in 3.0 mi SSE 15.0 mph - N/A   Scattered Clouds
12:34 PM 19.4 °F 6.0 °F 17.6 °F 93% 30.02 in 4.0 mi SSE 13.8 mph - N/A   Scattered Clouds
12:54 PM 19.4 °F 6.6 °F 19.4 °F 100% 30.02 in 5.0 mi South 12.7 mph - N/A   Scattered Clouds
1:14 PM 19.4 °F 6.0 °F 19.4 °F 100% 30.03 in 10.0 mi South 13.8 mph - N/A   Scattered Clouds
1:34 PM 21.2 °F 8.9 °F 19.4 °F 93% 30.03 in 10.0 mi South 12.7 mph - N/A   Clear
1:54 PM 21.2 °F 10.1 °F 19.4 °F 93% 30.03 in 7.0 mi South 10.4 mph - N/A   Clear
2:14 PM 21.2 °F 10.9 °F 21.2 °F 100% 30.04 in 7.0 mi South 9.2 mph - N/A   Clear
2:34 PM 21.2 °F 10.1 °F 21.2 °F 100% 30.04 in 7.0 mi South 10.4 mph - N/A   Clear
2:54 PM 21.2 °F 8.9 °F 19.4 °F 93% 30.04 in 7.0 mi South 12.7 mph - N/A   Clear
3:14 PM 21.2 °F 10.1 °F 21.2 °F 100% 30.04 in 7.0 mi South 10.4 mph - N/A   Clear
3:34 PM 21.2 °F 10.9 °F 19.4 °F 93% 30.04 in 7.0 mi South 9.2 mph - N/A   Clear
3:54 PM 21.2 °F 10.9 °F 19.4 °F 93% 30.04 in 7.0 mi SSE 9.2 mph - N/A   Clear
4:14 PM 21.2 °F 10.1 °F 19.4 °F 93% 30.04 in 7.0 mi SSE 10.4 mph - N/A   Clear
4:34 PM 21.2 °F 10.9 °F 19.4 °F 93% 30.04 in 7.0 mi SSE 9.2 mph - N/A   Clear
4:54 PM 19.4 °F 9.5 °F 19.4 °F 100% 30.05 in 7.0 mi SSE 8.1 mph - N/A   Clear
5:14 PM 19.4 °F 9.5 °F 17.6 °F 93% 30.06 in 10.0 mi SSE 8.1 mph - N/A   Clear
5:34 PM 17.6 °F 10.7 °F 17.6 °F 100% 30.06 in 10.0 mi South 4.6 mph - N/A   Clear
5:54 PM 17.6 °F 10.7 °F 15.8 °F 93% 30.06 in 7.0 mi South 4.6 mph - N/A   Clear
6:14 PM 17.6 °F - 15.8 °F 93% 30.06 in 1.2 mi Calm Calm - N/A   Mostly Cloudy
6:34 PM 15.8 °F - 15.8 °F 100% 30.07 in 0.2 mi Calm Calm - N/A Fog Light Freezing Fog
6:54 PM 15.8 °F 10.2 °F 14.0 °F 93% 30.06 in 0.2 mi SSE 3.5 mph - N/A Fog Light Freezing Fog
7:14 PM 14.0 °F 3.9 °F 12.2 °F 93% 30.07 in 0.2 mi South 6.9 mph - N/A Fog Light Freezing Fog
7:34 PM 12.2 °F 2.9 °F 10.4 °F 92% 30.07 in 0.2 mi South 5.8 mph - N/A Fog Light Freezing Fog
7:54 PM 12.2 °F 6.1 °F 10.4 °F 92% 30.07 in 0.2 mi SSE 3.5 mph - N/A Fog Light Freezing Fog
8:14 PM 10.4 °F 2.2 °F 10.4 °F 100% 30.07 in 0.2 mi South 4.6 mph - N/A Fog Light Freezing Fog
8:34 PM 10.4 °F - 8.6 °F 92% 30.07 in 0.2 mi Calm Calm - N/A Fog Light Freezing Fog
8:54 PM 12.2 °F 4.3 °F 10.4 °F 92% 30.09 in 0.8 mi NW 4.6 mph - N/A   Overcast
9:14 PM 12.2 °F - 10.4 °F 92% 30.09 in 0.2 mi Calm Calm - N/A Fog Light Freezing Fog
9:34 PM 10.4 °F - 10.4 °F 100% 30.09 in 0.2 mi Calm Calm - N/A Fog Light Freezing Fog
9:54 PM 10.4 °F - 8.6 °F 92% 30.10 in 0.2 mi Calm Calm - N/A Fog Light Freezing Fog
10:14 PM 10.4 °F - 10.4 °F 100% 30.10 in 0.2 mi Calm Calm - N/A Fog Light Freezing Fog
10:54 PM 10.4 °F - 8.6 °F 92% 30.10 in 0.5 mi Calm Calm - N/A Fog Light Freezing Fog
11:14 PM 10.4 °F - 8.6 °F 92% 30.10 in 0.2 mi Calm Calm - N/A Fog Light Freezing Fog
11:34 PM 10.4 °F - 8.6 °F 92% 30.10 in 0.2 mi Calm Calm - N/A Fog Light Freezing Fog
11:54 PM 10.4 °F - 8.6 °F 92% 30.10 in 0.2 mi Calm Calm - N/A Fog Light Freezing Fog